GFSNW_700_spd_000.txt.gz
Wind_Speed
12 13 16 17 16 17 17 17 14 21 20 18 18 12 15 17 18 15 12 10 7 10 8 6 5 4 4 0 3 2 5 2 1 3 4 5 5 3 2 2 2 5 4 10
14 13 15 17 18 17 17 15 15 19 18 15 17 14 17 18 17 14 12 11 9 9 9 5 6 4 2 3 5 4 6 2 2 1 3 5 4 4 7 9 6 10 6 5
16 13 13 16 18 18 18 15 13 17 18 14 13 15 17 18 16 12 11 10 10 9 8 5 5 3 2 5 5 6 5 4 4 6 7 8 9 10 10 10 10 13 20 23
17 15 14 15 16 17 17 16 14 18 20 16 14 14 16 17 16 13 13 12 10 9 8 6 3 2 4 5 7 4 5 6 11 11 13 17 16 14 14 18 18 16 16 19
20 18 16 15 16 15 16 16 12 17 12 15 15 16 18 16 15 15 13 11 10 8 6 4 3 2 4 6 6 7 10 8 14 16 14 14 18 22 12 6 12 15 17 20
21 20 18 17 16 16 15 15 11 15 14 17 18 17 17 16 12 12 11 10 9 7 6 4 1 2 5 7 8 9 10 8 9 7 11 22 12 4 6 12 11 13 12 13
23 21 20 18 16 15 15 14 12 15 17 18 17 15 13 14 13 11 12 11 8 7 4 1 1 1 4 6 5 6 8 10 9 8 14 3 5 17 21 13 10 11 17 18
23 22 20 19 16 15 14 16 16 15 15 17 16 14 14 14 13 11 10 9 8 6 2 2 1 2 2 5 8 6 6 8 6 3 5 20 11 3 9 11 17 20 20 21
24 22 21 20 18 16 14 14 17 18 16 17 15 14 13 13 13 12 11 10 8 5 4 2 2 2 5 3 6 4 7 10 10 8 5 5 3 17 19 15 15 14 21 34
25 24 23 21 19 17 16 15 15 15 15 12 15 14 13 13 14 13 11 11 9 8 6 6 4 5 6 4 5 7 12 13 13 11 10 12 15 13 10 9 13 30 33 34
26 25 24 22 20 18 17 17 16 15 13 11 12 12 12 12 14 14 12 12 14 11 9 6 6 7 8 9 12 13 12 7 9 7 8 8 6 16 21 26 33 35 35 34
28 26 25 24 22 20 19 18 17 15 14 10 12 13 13 14 16 16 16 16 10 10 8 8 7 10 14 15 13 15 13 11 14 13 18 21 27 27 28 28 31 34 35 33
30 28 26 25 23 21 20 19 19 18 17 16 17 16 15 16 17 17 18 19 18 18 16 15 16 18 19 21 19 19 24 24 28 26 29 19 23 28 33 31 35 33 31 40
30 29 27 26 25 23 22 21 20 20 19 20 18 15 18 21 21 20 19 20 21 20 19 18 19 21 19 24 23 28 31 28 33 27 23 23 25 30 35 30 34 34 37 38
30 29 27 27 26 25 24 24 23 22 21 14 20 23 24 23 21 19 19 21 22 24 25 23 23 23 28 32 32 34 27 25 25 26 20 25 29 27 27 38 37 33 33 29
31 30 30 30 29 28 26 26 26 25 24 25 25 24 23 20 18 17 23 23 23 27 26 27 29 28 27 22 28 31 29 26 24 25 30 26 22 28 32 31 28 30 27 28
32 31 31 31 30 29 29 28 26 26 25 25 24 26 31 29 28 26 24 23 24 25 27 33 34 33 27 33 35 31 32 29 30 30 26 22 25 30 27 27 30 28 29 32
37 33 32 31 30 30 31 30 27 25 23 25 19 17 21 21 19 18 19 20 20 25 29 34 33 31 29 30 33 31 29 25 27 23 21 26 28 27 28 27 28 31 33 37
36 36 31 32 34 35 34 29 28 28 28 23 29 32 23 23 22 19 19 20 24 30 34 34 28 28 22 24 29 29 22 25 22 20 23 24 24 26 27 28 32 36 40 44
37 37 37 39 37 35 28 26 27 30 33 35 38 31 27 21 20 21 23 27 20 17 21 21 28 35 32 24 24 23 25 25 19 20 23 24 26 27 29 35 38 41 45 41
42 42 43 37 36 35 31 28 23 22 28 31 40 37 31 30 27 30 22 16 11 11 17 16 11 21 19 20 20 22 18 16 19 22 25 26 28 31 36 38 42 39 38 38
47 48 44 43 35 23 19 21 17 15 23 18 21 25 25 25 23 20 12 10 8 9 10 9 10 14 17 17 16 16 16 20 22 24 25 27 30 34 40 39 38 39 38 37
39 40 37 22 17 14 14 15 20 18 13 17 17 19 26 17 9 6 10 6 8 9 8 11 17 19 14 11 10 13 19 22 23 25 27 30 35 39 37 38 36 37 36 37
21 14 16 15 8 8 8 11 14 16 15 19 11 7 7 10 6 10 5 11 9 8 11 18 20 16 11 10 14 21 22 22 25 28 32 37 37 36 35 34 35 35 36 36
5 5 4 5 8 9 9 8 7 8 6 6 8 11 12 12 10 9 9 5 7 6 9 12 10 9 10 16 20 20 22 26 31 34 35 34 35 35 35 34 33 34 35 37
6 2 3 5 3 4 3 1 1 1 5 8 12 10 7 11 7 9 9 8 10 13 15 15 13 14 18 21 23 26 30 32 33 32 34 35 35 36 34 32 30 30 32 34
5 7 7 5 3 3 4 4 5 6 7 10 10 8 10 6 7 9 11 17 21 21 18 17 19 21 22 27 30 31 31 30 32 33 34 35 35 33 32 30 28 29 30 32

GFSNW_700_spd_003.txt.gz
Wind_Speed
14 16 17 16 17 19 20 18 9 22 23 16 12 7 8 13 19 16 11 7 7 7 7 5 4 5 3 1 3 2 5 2 1 1 5 3 1 2 2 2 2 4 4 10
14 15 18 18 18 18 20 11 12 23 22 12 17 14 13 14 16 12 9 10 9 8 8 4 6 5 3 1 1 1 2 2 3 3 1 2 2 3 4 3 4 9 7 6
15 15 17 19 19 19 19 10 12 20 21 13 13 13 13 17 17 15 13 10 10 10 7 5 7 4 3 3 2 2 1 1 2 7 8 8 9 10 10 11 11 13 16 18
17 15 16 18 20 20 18 14 12 18 20 17 12 13 12 14 17 16 11 11 8 9 6 7 5 5 3 4 3 1 2 1 5 9 11 11 13 14 14 16 17 17 17 18
19 17 16 18 19 19 19 15 15 18 10 17 14 15 13 14 13 12 12 9 11 8 6 3 7 5 3 2 1 0 5 3 10 14 8 9 14 17 18 15 11 16 16 17
21 20 18 18 18 18 18 18 16 17 17 18 15 15 15 14 15 15 9 12 11 12 9 10 8 7 5 4 2 3 5 4 8 6 13 20 11 2 2 8 12 11 13 15
22 21 19 18 18 17 15 16 14 16 18 18 15 15 14 15 11 12 14 10 12 12 10 8 6 5 3 4 4 5 3 4 5 8 11 3 2 9 15 13 11 10 12 13
23 21 20 18 17 16 15 14 14 15 15 20 18 16 16 17 15 12 15 13 12 12 9 5 3 2 2 3 5 3 3 4 4 2 7 18 11 2 3 10 14 14 11 13
24 22 20 18 17 16 14 15 16 15 15 19 18 17 17 18 18 15 14 14 12 11 8 5 4 3 3 3 4 4 5 4 4 5 4 4 3 8 12 13 15 15 19 23
25 22 20 20 18 17 15 14 14 17 17 16 18 17 18 15 15 13 16 14 13 12 9 7 7 4 5 3 4 5 8 10 11 9 9 11 11 20 17 7 12 20 29 35
26 23 22 21 21 19 17 15 14 14 15 14 19 19 17 16 17 16 18 16 17 16 13 9 8 8 7 6 5 7 7 6 7 5 7 8 7 9 18 19 21 30 34 31
29 26 24 24 23 21 19 18 16 14 14 11 14 15 16 18 19 16 16 15 12 13 12 13 9 10 9 10 5 6 8 11 8 9 13 20 25 28 30 25 28 29 29 27
30 29 26 25 24 23 21 19 18 17 16 14 14 16 16 16 16 16 18 18 19 18 19 17 17 16 15 15 15 14 17 14 24 23 21 22 25 21 22 29 30 28 35 27
30 30 28 27 26 24 23 21 19 19 18 19 18 16 20 19 18 18 18 20 19 20 21 22 21 21 18 21 18 17 20 16 22 28 27 25 22 21 26 29 26 32 32 27
29 30 30 29 28 26 25 23 22 21 21 13 20 23 21 19 19 19 19 20 20 21 21 24 23 24 24 29 27 30 24 20 22 26 25 26 25 30 26 21 27 27 28 29
28 29 29 30 29 28 26 26 26 24 23 25 25 23 21 21 22 24 25 25 24 23 25 27 25 26 23 22 30 34 29 25 24 24 28 30 34 27 18 23 24 28 29 28
30 29 30 30 29 29 30 29 28 26 26 26 27 25 29 26 26 27 26 27 28 28 30 32 30 28 28 32 38 32 30 29 26 25 29 26 20 18 25 29 28 29 23 25
32 31 31 30 31 32 31 30 28 25 24 28 23 18 22 26 30 29 29 30 30 31 33 34 33 28 30 31 37 32 25 25 25 23 19 14 17 22 25 27 28 29 28 28
33 30 29 30 34 36 33 28 28 29 29 25 29 31 28 26 27 24 24 24 28 31 34 33 32 34 31 30 24 26 26 24 23 22 22 18 18 23 26 28 28 32 36 39
40 34 35 38 40 34 28 29 30 33 36 39 41 36 32 28 22 22 24 25 22 21 28 28 33 42 36 30 28 28 26 22 21 22 20 20 22 26 28 29 31 35 38 38
34 36 37 39 39 31 29 30 25 27 33 37 46 45 37 32 27 24 23 24 16 18 25 22 15 29 28 20 17 18 19 18 19 19 20 22 24 27 28 32 35 38 37 37
45 43 44 40 26 27 21 22 22 26 28 38 33 36 34 38 38 35 32 26 12 10 13 11 10 17 13 12 15 16 16 18 19 20 22 24 26 28 31 34 36 37 36 36
30 42 29 22 23 16 15 21 22 27 28 32 33 31 24 30 31 29 17 11 10 9 9 8 8 15 16 16 14 15 16 17 19 21 24 26 28 31 35 35 35 35 37 35
20 17 17 13 6 8 10 16 22 27 29 24 20 26 30 27 25 11 8 9 8 6 6 7 12 12 14 14 13 12 17 18 21 24 27 29 32 32 33 34 34 37 35 34
8 8 5 4 4 7 10 12 12 14 17 20 24 23 12 10 7 8 7 5 6 5 5 12 11 12 12 12 14 17 18 21 25 29 31 31 31 33 35 35 36 35 33 32
6 3 7 8 8 8 6 4 7 9 9 8 9 6 4 8 6 6 7 5 5 7 12 10 13 13 13 15 17 18 22 27 30 30 30 32 34 35 36 36 33 32 32 31
5 7 8 10 3 4 6 3 4 5 5 10 5 3 6 4 6 9 12 18 20 18 17 17 14 14 16 19 21 26 30 29 28 30 32 34 34 35 34 33 30 31 31 32

GFSNW_700_spd_006.txt.gz
Wind_Speed
15 17 15 18 21 22 20 18 8 9 21 21 18 8 8 8 9 15 12 7 7 7 7 6 4 7 5 3 6 2 4 5 4 3 5 1 3 2 2 1 1 3 3 10
15 17 16 18 21 22 23 12 8 12 22 13 16 12 8 8 9 8 6 5 7 8 7 4 8 6 5 3 5 7 6 1 1 6 2 3 2 1 3 4 6 8 5 6
16 18 18 19 22 24 21 10 8 21 26 9 16 9 9 13 13 13 8 7 6 8 6 4 7 4 5 5 2 4 4 2 2 1 5 8 9 10 10 12 11 13 14 18
17 17 19 19 23 27 21 9 8 21 27 13 12 12 9 11 14 8 9 7 6 8 6 7 6 5 2 2 2 4 3 3 2 4 7 8 11 13 13 15 16 18 20 17
17 17 18 21 21 22 19 8 8 17 7 17 11 14 12 13 9 9 11 7 9 8 7 4 7 6 3 1 3 2 1 2 7 9 2 7 14 17 16 16 16 14 14 16
19 18 17 19 20 19 15 15 12 14 17 13 14 15 11 13 16 13 9 11 13 14 13 16 17 15 12 8 3 3 2 3 7 2 12 15 3 4 2 4 7 10 13 14
21 19 18 18 18 19 19 17 13 14 13 15 14 10 12 15 13 11 11 13 18 21 13 10 10 8 7 6 7 5 3 3 5 6 8 2 1 13 13 14 11 9 11 12
21 20 19 18 17 16 14 13 14 14 14 14 13 13 14 16 15 15 18 16 18 11 11 9 5 5 4 5 5 4 2 3 3 2 4 14 9 6 5 7 15 12 13 17
22 21 19 17 16 15 14 14 14 12 12 18 13 14 19 20 20 21 16 16 13 14 13 11 7 5 4 5 4 6 5 5 5 6 2 4 3 7 14 19 16 14 19 21
24 21 20 17 16 14 13 13 14 14 12 13 15 17 20 16 17 14 15 15 15 16 15 13 9 6 8 6 8 5 7 8 11 8 7 9 10 13 13 8 10 17 26 30
25 22 20 18 17 15 15 13 13 14 14 11 18 18 16 16 13 15 15 16 17 18 16 12 11 9 10 12 7 7 6 5 6 5 6 9 7 9 12 15 21 32 29 28
27 23 21 19 19 18 17 16 14 13 13 9 15 19 18 19 18 17 17 11 13 12 11 14 10 11 11 13 8 8 10 14 10 11 9 10 20 20 28 32 29 33 29 31
29 26 23 21 20 20 20 18 17 16 14 12 13 16 17 18 19 18 17 17 15 16 19 16 15 15 14 18 19 16 16 16 20 19 25 21 23 22 28 28 28 31 34 28
31 28 25 23 22 23 23 22 19 19 17 17 16 14 18 16 18 18 19 19 19 21 20 20 22 24 20 24 22 18 19 18 21 22 24 22 24 31 31 31 26 32 26 24
29 28 27 26 25 25 25 23 22 20 20 12 18 21 18 18 18 19 20 20 20 21 21 23 24 25 24 28 29 31 27 29 25 26 22 26 27 30 32 30 36 27 23 25
26 27 27 27 26 26 26 26 26 24 24 23 24 21 18 20 23 24 22 21 21 23 25 26 25 27 24 23 30 34 28 21 25 26 31 33 27 26 31 28 23 23 27 27
24 24 25 26 28 28 29 28 26 26 25 25 26 24 28 24 23 25 24 26 25 23 24 28 27 26 26 32 39 35 30 28 22 30 29 27 28 26 22 19 22 26 24 26
27 26 25 25 26 28 29 27 26 23 24 26 26 18 20 22 27 29 29 31 30 31 32 34 31 28 27 33 37 34 31 25 29 31 22 24 24 19 21 23 23 24 25 30
29 27 26 27 29 30 27 27 27 28 28 22 30 30 24 26 29 27 26 29 31 32 36 36 34 37 34 38 33 32 22 27 29 25 25 21 20 18 19 22 25 28 32 34
31 29 29 32 33 27 26 27 28 31 34 36 39 33 31 29 24 22 25 27 24 24 33 30 35 46 44 40 38 38 33 30 26 24 22 19 20 17 22 25 29 31 33 35
35 33 33 33 32 26 26 25 24 28 36 40 44 44 39 36 30 25 22 21 12 19 25 23 27 40 37 28 25 27 27 26 24 22 22 19 17 22 27 29 31 32 35 35
26 33 35 28 21 17 21 20 25 28 26 36 34 33 38 37 35 30 26 27 15 15 23 14 21 26 22 18 13 12 14 17 19 18 16 19 24 27 30 31 31 33 34 35
25 34 34 26 18 20 10 15 15 22 27 33 36 34 30 28 30 27 20 15 17 22 14 14 15 16 11 10 8 11 15 15 14 14 20 24 27 29 30 31 31 34 36 35
17 10 12 12 7 8 12 16 17 22 20 27 25 20 19 28 26 23 10 13 10 9 7 7 9 11 9 9 8 11 11 10 14 20 23 26 28 29 29 30 33 35 35 36
9 6 6 6 6 6 7 13 16 15 18 15 17 24 26 22 16 10 10 7 6 7 4 9 6 5 6 5 7 11 13 19 22 24 28 29 29 29 31 32 34 34 35 33
4 4 3 5 6 6 8 8 9 9 11 14 11 8 5 4 4 5 5 3 3 5 3 9 8 8 8 11 12 16 19 22 25 28 29 28 28 30 33 33 33 33 32 31
3 6 6 5 3 4 5 4 4 4 2 4 3 4 2 0 1 3 3 2 9 11 14 15 13 12 11 14 17 21 23 26 28 26 26 28 30 31 33 33 32 31 29 30

GFSNW_700_spd_009.txt.gz
Wind_Speed
18 20 22 23 24 25 23 20 16 14 21 23 24 15 3 9 10 14 14 7 11 8 12 7 7 12 7 7 10 8 8 9 9 5 5 3 1 1 1 1 1 3 0 4
18 20 21 23 25 25 24 22 12 11 22 23 23 9 8 7 8 12 12 14 12 8 12 6 7 10 9 8 8 9 11 7 8 3 2 3 4 1 4 5 4 4 2 3
19 20 20 24 26 26 27 17 12 14 22 19 21 11 11 13 12 12 10 10 13 12 10 8 11 9 9 6 7 10 10 9 5 6 3 5 6 7 6 9 9 12 15 17
20 21 20 25 29 32 22 12 11 15 27 17 22 11 7 15 17 14 13 8 10 12 9 7 8 7 7 7 9 10 8 10 7 4 6 7 8 10 10 12 14 15 18 13
19 22 20 25 31 29 20 12 14 20 24 18 18 17 12 10 7 9 10 6 10 11 14 12 9 8 3 6 9 11 7 6 4 3 5 6 13 10 9 12 14 15 16 12
19 20 23 25 31 26 16 10 13 20 12 22 18 12 16 14 14 9 12 12 17 16 15 15 17 14 11 7 9 7 5 3 2 3 5 7 5 3 3 6 9 8 11 13
20 19 22 25 27 24 21 17 15 18 17 18 19 14 17 12 15 13 12 13 21 19 16 13 13 12 12 10 9 6 5 4 3 3 2 1 6 9 12 15 13 13 13 13
21 20 20 21 22 23 21 14 15 13 12 12 15 12 12 16 18 17 20 19 18 18 17 12 10 10 9 10 10 11 9 6 3 3 3 10 8 9 12 10 12 16 22 26
21 20 19 19 19 18 16 13 13 12 11 13 15 16 18 20 20 20 21 21 19 18 16 14 9 7 6 7 6 13 9 7 7 7 4 6 8 7 13 15 16 19 18 20
21 20 19 18 17 16 15 14 13 12 12 14 18 17 21 21 21 22 21 18 16 14 15 14 11 10 10 7 8 10 14 12 14 12 8 8 10 15 13 10 15 19 22 24
22 20 18 17 17 15 14 13 13 12 12 8 17 19 19 20 18 18 18 17 18 17 16 14 14 11 13 13 13 11 12 8 9 9 8 9 7 13 16 19 26 25 28 34
23 20 19 18 17 17 16 14 12 11 11 8 14 20 20 19 18 14 15 14 13 14 12 16 12 13 14 18 14 18 15 18 13 14 11 19 21 19 26 29 29 29 32 31
25 22 20 19 18 17 17 16 14 13 11 11 13 17 17 19 21 19 17 17 17 17 17 16 14 15 15 19 21 20 15 19 21 18 21 19 17 27 29 32 33 32 28 35
26 25 23 21 18 17 17 17 17 17 15 14 13 13 15 17 18 19 18 17 17 17 17 18 19 21 19 23 23 25 23 23 27 31 25 22 26 29 33 34 34 30 32 30
27 25 24 23 21 19 18 20 20 19 19 9 16 17 16 17 19 18 18 19 19 19 20 23 23 23 24 30 31 33 27 27 29 34 33 32 31 30 29 30 31 35 35 29
28 27 26 24 24 23 22 23 23 22 21 21 20 16 15 19 22 20 20 20 22 23 24 25 25 26 25 26 32 35 27 24 23 29 29 30 31 31 32 30 33 32 21 22
28 28 27 26 25 25 25 23 24 24 24 23 24 24 25 22 20 22 22 25 26 27 29 30 27 25 25 34 39 35 31 29 28 28 30 31 31 29 30 31 22 18 23 26
23 23 24 25 25 26 25 24 23 23 24 26 25 16 20 22 24 25 25 28 27 29 32 34 32 31 32 40 44 39 35 29 27 31 32 30 32 29 30 21 22 21 24 26
26 24 22 22 24 23 23 24 25 25 26 25 29 28 23 25 25 24 24 25 29 32 35 36 35 39 36 42 36 32 31 31 31 28 28 34 29 28 23 23 20 23 26 29
29 25 23 25 23 22 22 22 25 28 31 33 35 31 28 26 24 22 21 24 26 25 31 30 36 45 43 39 36 35 36 36 33 26 31 29 27 21 20 19 22 26 30 32
29 29 29 27 23 22 22 19 19 22 29 33 39 38 37 34 30 28 25 21 15 22 25 25 29 41 39 30 25 27 30 30 29 31 29 22 17 14 16 21 27 30 31 32
24 25 25 22 21 19 13 16 20 22 21 27 23 26 31 35 35 31 26 26 17 15 19 15 22 28 26 19 15 20 27 31 29 21 13 12 12 15 22 27 30 31 30 31
21 25 21 14 14 13 13 18 20 16 27 24 24 25 26 25 25 25 21 15 18 22 16 17 19 16 16 14 14 19 18 12 11 12 11 11 17 24 28 28 28 28 30 32
16 8 12 12 7 9 14 15 20 17 16 19 22 19 14 22 23 21 10 13 12 10 8 7 13 13 14 16 12 10 7 9 11 10 14 22 26 27 27 26 27 29 31 32
8 6 6 8 8 7 7 12 16 16 16 15 13 19 23 20 17 11 10 6 5 6 5 8 12 12 7 5 1 2 5 8 13 18 21 25 27 27 25 26 27 29 31 32
6 5 2 1 2 3 4 6 8 8 8 10 15 13 6 7 3 4 3 4 2 5 4 0 3 4 5 5 7 8 11 16 18 22 25 27 26 26 26 27 28 30 32 31
4 5 6 5 4 3 3 5 3 3 3 4 4 3 4 2 2 4 4 5 4 8 10 11 13 12 10 10 12 15 18 21 24 27 26 25 25 27 29 29 29 31 30 29

GFSNW_700_spd_012.txt.gz
Wind_Speed
25 27 29 30 31 30 28 24 23 24 23 23 26 25 5 9 11 15 13 10 9 17 15 14 14 9 7 8 10 14 10 11 9 7 6 5 2 2 3 2 3 3 3 6
25 27 29 31 32 30 28 24 21 20 24 25 26 20 7 11 9 16 15 13 13 14 14 10 6 8 8 9 9 15 14 10 9 4 5 6 4 4 4 3 5 7 5 4
25 27 29 30 31 31 29 28 20 21 24 25 25 14 11 10 10 14 17 14 12 14 13 12 8 10 9 10 12 12 12 14 7 9 5 6 7 7 5 7 8 11 18 12
27 27 28 30 32 32 31 25 18 20 26 27 28 15 10 12 15 13 14 18 14 15 15 14 14 11 12 11 13 14 11 11 9 8 9 10 11 10 12 14 14 13 16 17
27 26 28 32 33 35 29 20 17 14 10 22 27 18 15 10 18 15 14 10 14 15 16 15 13 10 12 10 14 15 13 10 11 10 10 9 10 12 12 13 17 20 18 15
27 26 28 34 37 35 26 22 16 19 23 23 24 21 13 11 9 11 11 12 14 13 12 11 9 8 7 6 10 13 12 10 9 6 11 9 10 12 7 7 11 14 16 20
26 26 28 35 40 32 19 20 18 19 31 25 22 19 20 13 17 11 12 12 14 16 13 12 10 10 10 9 9 11 9 9 8 5 7 1 7 10 9 10 17 21 23 22
25 27 27 35 36 29 17 17 18 23 19 26 21 18 19 17 15 16 13 14 13 16 14 13 12 13 14 16 16 15 13 11 7 4 8 10 10 16 15 10 13 17 19 21
25 25 27 29 31 28 22 17 15 15 18 19 20 22 18 20 18 17 18 19 19 17 16 16 11 8 9 6 7 17 16 15 13 9 5 6 7 12 13 12 19 11 11 18
25 25 25 25 27 25 21 19 16 15 14 17 20 22 18 18 19 18 20 21 20 18 18 18 16 13 10 8 10 10 17 18 18 18 11 10 16 15 15 10 12 14 18 17
25 24 23 23 22 20 18 17 15 14 15 15 22 21 22 19 19 17 18 19 19 18 17 15 15 13 16 16 16 13 14 12 15 13 10 12 15 16 19 19 23 23 22 23
25 23 22 21 19 18 16 15 14 14 15 13 18 20 19 19 17 18 17 17 16 12 11 16 12 13 14 19 18 20 18 23 18 17 12 17 21 25 25 25 25 27 26 28
24 22 21 20 19 18 17 16 14 13 12 12 15 19 19 18 17 15 15 15 16 15 16 18 15 16 17 19 20 22 22 22 23 26 29 27 24 27 26 26 28 27 28 29
23 22 20 19 19 18 17 16 15 15 13 14 14 18 20 19 18 17 17 16 15 14 15 17 19 21 18 22 23 22 21 22 25 31 31 31 29 27 24 29 32 32 30 34
24 22 21 20 19 18 16 16 16 16 16 8 16 16 18 19 18 19 19 18 18 18 19 21 21 21 24 28 30 31 27 28 29 34 29 32 34 35 36 30 31 31 32 32
25 24 23 22 20 19 17 17 17 17 18 19 16 14 18 20 19 17 19 20 21 22 22 25 26 25 26 26 32 34 26 24 24 28 28 29 30 29 29 31 32 33 32 33
26 25 24 23 22 21 20 20 18 19 20 20 20 21 22 19 17 18 21 23 24 25 28 30 30 29 31 37 41 34 33 31 31 31 32 32 31 30 31 31 33 34 29 23
27 26 26 25 24 23 23 22 21 20 21 23 19 13 19 21 21 21 22 24 24 27 30 32 32 33 34 41 39 36 34 30 30 29 29 28 30 33 36 36 37 25 18 17
24 25 24 24 24 23 23 23 22 24 24 22 25 27 25 25 23 22 21 22 25 30 33 34 34 38 38 40 37 36 35 34 32 28 30 29 30 33 36 34 17 13 14 20
22 20 21 21 20 20 20 21 23 26 28 29 30 28 25 24 23 22 23 25 24 25 30 29 35 46 42 38 35 34 32 29 29 30 30 34 38 37 29 12 11 12 19 26
25 24 24 22 19 19 18 17 15 17 20 28 34 32 31 28 26 25 26 25 21 25 27 26 31 40 38 33 33 31 28 25 25 27 27 32 33 20 9 7 13 20 27 30
27 28 26 23 20 18 13 14 15 14 15 18 17 21 25 30 30 30 27 30 22 17 23 19 25 32 27 23 22 21 22 25 25 25 30 23 8 8 7 13 21 26 29 29
16 17 15 10 12 12 11 14 10 14 23 17 16 17 18 19 18 20 16 14 16 22 15 16 20 24 17 14 16 21 21 23 21 11 11 12 6 10 18 23 28 31 28 27
20 18 12 10 8 12 14 17 19 24 21 19 21 22 13 20 16 18 9 11 10 7 6 6 13 11 14 13 14 13 7 4 7 6 5 9 15 20 25 29 29 26 26 27
11 7 5 8 10 8 7 9 12 15 16 14 11 16 22 18 15 8 10 5 5 5 3 7 7 8 6 1 2 3 4 6 9 11 14 16 21 26 27 26 25 26 27 27
9 7 5 4 4 4 5 7 8 9 9 9 11 14 10 12 7 5 5 3 4 5 7 5 2 3 4 2 2 5 5 10 13 16 19 24 28 28 26 25 25 28 28 30
5 7 8 6 6 4 4 4 2 2 4 6 5 4 7 3 4 4 4 5 5 6 6 8 9 9 7 7 10 10 12 15 18 22 27 30 27 26 26 27 28 29 31 31

GFSNW_700_spd_015.txt.gz
Wind_Speed
35 37 38 36 35 34 33 30 29 30 28 26 28 25 8 9 10 16 14 16 7 12 17 16 12 8 7 12 13 13 12 9 11 7 7 6 3 3 2 2 4 4 1 5
35 37 38 37 36 36 34 31 28 29 29 30 31 27 10 12 10 12 14 12 11 14 19 15 14 12 8 9 11 13 13 9 10 4 6 8 7 7 5 3 5 8 3 4
35 36 37 38 37 35 32 31 28 29 31 32 31 27 13 14 12 11 13 14 13 15 15 11 9 11 9 10 11 15 15 12 10 10 4 8 9 10 9 9 7 9 16 13
33 34 36 38 38 36 35 33 25 33 34 34 29 25 16 14 11 13 13 13 15 15 16 13 13 11 12 11 11 14 15 10 15 9 8 8 10 12 15 17 17 14 16 18
32 33 35 38 38 37 36 32 22 29 13 30 29 27 19 13 12 13 13 15 16 14 15 14 9 13 12 12 14 15 16 8 13 11 12 13 15 16 17 19 20 23 23 26
32 32 34 37 38 38 37 30 24 25 24 29 31 33 20 11 14 16 12 9 11 13 12 11 8 8 7 9 10 14 15 12 11 7 12 12 14 20 20 16 17 17 21 19
32 32 33 36 38 37 31 24 24 24 24 30 29 26 19 16 11 9 11 11 13 12 10 8 8 8 7 7 8 11 13 13 10 6 6 1 14 14 15 18 19 18 20 22
31 29 32 36 36 39 27 25 22 23 23 26 25 24 22 17 16 14 10 7 11 10 12 10 7 9 9 13 13 13 13 14 11 6 12 13 13 16 19 20 20 18 19 19
29 28 32 36 41 39 31 20 21 19 29 26 24 23 19 21 18 18 16 12 14 14 16 15 10 7 7 5 6 16 20 19 18 11 6 6 9 11 14 19 25 19 13 13
29 28 33 41 37 35 19 16 20 21 26 25 26 24 22 18 19 19 18 16 17 18 18 18 17 14 12 9 9 12 15 20 22 22 14 11 17 19 17 15 17 9 17 18
30 29 32 38 34 33 21 17 16 16 20 20 22 23 22 18 18 18 18 18 19 20 19 18 17 12 15 16 19 18 15 11 15 18 14 15 20 20 20 17 17 24 23 22
31 30 30 31 33 29 22 18 17 17 18 17 20 20 19 17 16 17 16 15 13 12 13 18 16 14 14 17 19 21 21 23 19 19 17 19 18 18 21 24 27 27 26 25
27 28 28 28 26 24 22 20 18 17 16 15 18 21 19 18 19 19 18 17 18 19 16 15 16 17 17 19 19 21 23 21 26 28 29 28 28 29 32 33 33 27 26 29
28 27 26 25 24 23 22 20 18 17 16 15 17 19 20 20 19 19 17 15 15 16 17 18 20 21 18 21 22 21 22 22 26 30 28 30 31 31 32 32 30 28 32 31
27 26 25 24 22 21 20 19 17 16 17 11 16 17 20 21 21 20 18 18 18 18 19 20 21 21 23 27 28 30 28 27 29 33 26 28 29 29 30 32 34 35 31 31
26 24 23 22 21 20 19 19 18 17 17 16 13 16 19 19 20 20 20 20 20 21 22 23 25 24 26 26 30 32 27 27 27 31 28 31 32 32 31 31 28 29 30 30
26 24 22 21 20 20 19 18 16 16 16 17 17 17 18 17 19 20 20 20 21 23 25 28 28 29 31 37 40 31 29 31 32 31 30 31 29 29 28 28 29 30 30 32
25 24 23 21 21 20 19 18 17 16 17 19 14 11 16 19 20 21 20 21 22 27 29 30 30 33 34 41 36 33 32 31 29 29 29 31 29 31 31 32 32 33 37 33
25 23 23 22 22 21 20 20 20 20 20 19 20 23 22 19 19 19 19 21 25 28 32 30 31 37 39 39 38 37 36 35 34 33 35 34 32 32 33 35 37 37 27 16
24 24 23 22 22 21 21 21 21 24 25 25 25 23 21 20 19 18 20 23 23 22 28 28 34 42 39 36 37 36 34 32 30 31 32 31 32 33 32 37 39 22 5 6
21 22 21 19 18 19 18 17 13 14 15 20 28 27 25 24 23 21 20 17 15 22 23 25 30 34 34 34 33 33 30 26 25 26 28 29 28 33 32 27 13 1 10 17
22 21 19 18 17 13 11 11 11 11 12 12 13 18 23 28 27 24 20 20 13 12 16 16 22 28 28 26 25 27 30 27 24 24 22 25 31 30 24 5 10 15 20 24
23 22 20 13 14 15 12 12 9 10 15 17 15 12 14 14 15 12 12 11 15 20 13 13 20 24 22 23 19 19 20 21 18 21 25 24 18 3 11 16 20 22 25 25
17 17 12 12 7 10 13 16 18 18 18 15 15 15 9 13 10 12 6 10 10 7 6 7 13 11 8 6 10 8 8 5 3 5 8 10 13 14 16 20 24 27 25 25
16 9 7 10 11 10 9 13 14 15 17 16 13 14 20 14 11 8 10 6 6 7 6 6 4 6 7 3 6 5 7 10 12 12 13 14 16 19 24 29 30 28 27 27
11 7 6 6 7 8 7 7 7 8 9 10 11 12 7 12 8 6 6 4 6 6 8 10 9 6 6 6 4 9 8 12 17 16 17 20 23 26 30 28 26 27 29 30
7 9 11 9 8 7 8 8 7 7 8 9 8 7 8 4 4 4 5 5 5 6 7 9 8 4 5 8 11 11 10 10 11 16 20 25 28 27 27 27 27 30 31 33

GFSNW_700_spd_021.txt.gz
Wind_Speed
54 53 52 49 47 46 46 43 39 37 36 31 30 27 24 12 10 19 18 15 7 10 13 12 11 11 8 6 14 13 13 7 7 12 8 9 9 9 8 5 5 5 3 7
54 52 52 51 49 46 46 44 36 37 36 35 30 29 25 14 12 18 18 17 13 9 9 13 11 10 10 7 11 11 13 9 6 3 9 14 14 13 12 10 7 8 4 5
55 53 52 50 47 44 44 43 32 38 36 35 33 30 27 15 13 13 15 17 14 13 8 15 10 15 10 10 10 15 13 14 11 13 5 8 15 17 15 14 8 10 19 21
55 53 53 50 47 45 44 43 33 41 40 38 34 28 28 17 13 11 13 13 12 11 9 17 14 11 11 11 11 14 16 14 16 15 12 10 11 13 16 19 20 17 22 22
53 53 53 51 49 46 45 37 32 36 17 35 32 32 27 24 15 12 12 10 11 12 11 12 11 7 9 11 11 14 15 12 14 15 16 16 17 17 20 21 24 27 28 27
52 52 53 52 50 48 45 36 27 30 38 25 35 35 32 24 18 14 13 10 13 12 10 10 10 10 10 10 12 12 14 14 12 8 15 17 16 25 26 26 27 27 29 24
49 50 52 51 49 46 42 33 32 24 29 30 33 32 30 31 18 16 13 10 10 13 12 10 8 7 7 8 9 10 10 11 10 6 7 3 15 18 18 19 18 19 24 23
47 48 49 49 46 44 41 37 32 28 22 26 24 34 30 28 23 16 13 12 11 9 10 9 6 7 7 11 11 10 9 10 7 5 9 16 16 16 22 25 24 22 22 23
43 43 45 46 45 43 40 36 30 22 19 24 26 30 31 31 28 19 16 13 12 12 12 11 6 4 4 3 3 10 13 13 12 10 5 5 6 14 19 22 25 22 16 15
39 40 41 42 43 43 40 33 25 24 20 14 25 27 33 34 28 22 19 17 15 12 12 11 10 10 8 5 5 5 8 10 15 17 13 10 13 18 21 12 16 12 13 12
35 35 36 39 43 42 37 29 22 21 20 16 20 25 29 34 27 23 22 20 20 17 15 13 12 9 11 12 14 13 13 7 8 8 7 8 6 8 10 15 24 24 19 22
31 33 34 38 41 38 35 29 22 18 13 15 24 28 23 25 24 22 20 20 13 16 16 14 9 12 12 15 15 16 15 16 12 11 12 19 24 24 21 22 23 23 26 26
30 30 33 36 38 38 39 36 22 19 15 17 24 24 22 22 21 20 20 19 19 15 14 14 14 15 15 15 14 15 16 15 21 24 23 22 23 24 23 23 24 24 26 26
27 28 32 35 39 43 39 34 21 16 15 19 24 23 23 22 21 20 19 18 17 16 16 16 18 20 16 16 16 15 16 20 24 26 24 22 20 22 24 25 26 26 27 28
27 30 33 34 31 31 20 16 14 14 16 17 21 21 21 20 19 20 20 19 18 18 19 20 20 19 20 22 20 20 20 20 21 24 23 26 25 25 27 28 29 28 29 30
28 30 32 33 30 26 24 17 16 18 20 9 19 18 20 19 19 18 18 18 19 20 19 19 21 21 21 15 16 21 21 23 25 27 27 27 25 25 27 29 29 30 32 32
29 29 30 29 27 25 25 22 20 19 19 14 12 14 17 16 16 18 19 19 20 20 21 22 22 22 22 26 26 24 25 26 24 25 27 28 28 30 31 32 31 31 31 30
23 25 24 25 25 23 22 19 17 18 17 16 12 10 12 15 17 17 18 20 21 22 23 23 24 24 24 24 20 24 26 27 28 28 30 34 34 33 33 33 32 30 27 27
22 20 20 19 19 19 19 17 16 16 17 13 12 12 11 10 12 15 17 20 23 24 25 25 25 26 22 22 26 29 31 32 31 32 30 29 29 29 29 29 28 25 23 26
19 18 16 16 16 16 15 14 15 15 16 15 13 11 12 12 14 15 17 18 17 14 19 19 22 27 26 26 29 29 30 29 27 27 25 25 28 30 30 27 26 26 24 24
16 16 17 16 16 15 15 13 11 11 10 13 16 16 17 19 19 17 14 11 9 11 14 16 13 15 23 25 25 25 26 26 25 26 28 28 24 21 22 20 19 17 14 9
18 16 15 14 11 10 10 9 9 7 10 12 14 19 22 23 21 17 13 15 8 8 11 10 6 19 23 23 22 21 24 24 21 20 19 17 13 11 9 8 9 13 22 24
15 17 17 10 12 11 9 11 11 14 17 16 15 15 16 17 18 12 9 8 9 10 6 7 13 17 18 18 15 14 11 8 7 5 2 5 7 10 16 20 20 19 19 19
18 14 13 10 7 9 15 17 17 15 13 12 12 11 8 11 10 9 6 9 7 7 8 10 12 10 13 10 6 6 7 8 9 8 9 10 11 12 13 14 16 18 18 18
16 10 8 12 11 8 7 10 13 13 12 11 12 11 11 8 7 6 8 5 6 7 7 7 7 8 8 8 9 7 5 6 7 8 11 12 13 16 18 19 19 19 20 21
6 5 5 6 8 9 9 10 10 9 10 9 11 10 5 10 7 7 8 5 5 5 4 4 5 9 10 8 7 7 8 10 11 10 11 13 15 16 18 19 20 22 24 26
3 2 5 6 7 7 8 9 10 11 13 14 9 7 8 6 6 7 7 5 6 6 4 3 7 8 9 10 12 10 7 6 10 13 15 16 17 19 20 22 23 26 29 32

GFSNW_700_spd_024.txt.gz
Wind_Speed
66 59 58 59 56 51 48 49 46 47 43 39 34 28 24 21 14 15 19 14 11 13 15 13 13 15 15 12 14 12 14 9 6 9 11 13 14 10 10 7 5 5 2 7
67 60 60 62 60 58 55 54 37 47 44 35 36 27 28 25 15 18 21 18 11 12 13 10 13 14 14 10 10 13 16 9 6 4 7 14 13 16 15 14 10 9 4 4
63 62 63 64 62 55 51 52 35 46 46 34 33 29 28 23 16 20 22 19 15 12 10 13 10 13 13 12 10 13 14 16 11 12 4 5 12 20 19 14 8 9 15 13
46 62 64 63 59 55 54 50 33 41 51 45 32 30 27 24 20 17 21 18 17 15 14 11 16 14 14 12 12 12 16 12 17 18 16 14 12 11 17 21 18 13 16 16
43 61 62 62 57 55 56 48 34 36 28 45 32 32 26 26 21 19 20 16 16 14 13 10 13 15 14 12 13 14 16 12 16 18 18 18 19 18 18 19 20 24 24 26
55 65 63 62 58 57 58 43 29 37 24 44 38 38 26 27 21 18 17 14 13 13 13 11 10 12 10 10 13 14 16 15 11 7 14 16 16 24 25 26 26 26 23 22
64 64 63 63 60 55 54 35 29 33 39 33 40 32 31 27 25 20 16 12 12 14 14 12 11 12 12 12 13 12 12 13 10 6 3 3 11 16 15 17 17 19 20 20
63 63 62 60 57 53 50 33 31 27 29 29 30 36 32 28 24 21 18 15 12 10 14 12 9 9 8 10 10 11 11 11 7 5 7 13 16 15 16 16 16 17 20 20
61 61 59 57 54 52 48 39 36 24 26 31 29 31 32 30 31 24 20 17 13 13 15 14 9 6 6 5 5 15 15 13 12 7 4 4 5 9 15 15 12 7 7 11
55 55 56 54 53 49 45 42 33 29 25 19 27 31 36 34 32 30 24 19 17 16 18 17 11 8 9 5 6 6 8 9 15 15 10 8 12 13 12 4 4 12 20 20
50 52 53 52 50 47 42 39 33 28 23 19 17 29 28 36 33 31 27 23 23 21 17 14 11 8 11 11 11 8 8 5 6 7 6 6 2 7 9 12 21 21 20 17
47 49 50 49 48 46 40 34 28 26 26 18 16 22 25 29 34 29 24 24 17 21 18 15 9 11 9 10 6 10 11 11 8 7 6 14 19 16 17 21 23 23 24 24
44 44 45 47 46 44 39 35 24 21 20 17 21 23 24 25 31 29 27 23 22 17 17 15 12 11 10 11 11 13 13 12 15 17 16 15 19 19 20 22 23 24 25 27
39 40 42 44 45 42 38 33 28 23 21 14 24 26 26 21 26 26 25 24 19 18 17 17 16 15 13 14 14 13 14 17 19 20 17 18 19 23 24 24 26 27 28 29
36 37 40 42 43 41 38 37 26 21 16 15 23 25 24 23 24 22 20 18 19 18 18 18 18 17 17 17 16 17 15 16 15 17 20 23 24 24 26 25 26 27 29 29
34 36 38 40 39 37 39 31 27 19 14 10 25 25 24 23 23 23 21 20 18 19 19 19 17 17 16 10 13 14 16 17 22 24 24 24 24 25 26 28 29 32 33 33
33 35 36 37 41 32 20 25 20 15 14 9 19 23 24 24 22 21 20 19 19 19 19 20 20 19 19 19 17 19 19 21 25 26 24 25 25 26 29 32 32 32 32 31
33 36 36 36 38 30 22 14 12 18 18 13 10 13 20 19 20 20 20 20 21 22 22 23 22 21 21 17 19 20 21 22 26 27 27 27 31 31 28 28 28 28 30 30
33 32 31 30 29 26 24 16 17 21 18 15 14 13 12 17 17 17 18 19 21 21 23 23 23 22 18 19 20 22 24 25 27 28 29 26 25 24 25 27 29 26 21 23
32 32 29 26 27 24 20 19 21 20 20 17 13 15 14 13 15 16 17 17 14 14 19 19 24 27 25 25 27 27 26 23 22 21 21 22 24 25 22 19 17 15 13 10
26 24 22 21 22 22 20 12 14 11 12 15 16 14 14 16 17 16 13 12 8 9 14 16 12 19 23 23 24 24 21 19 18 19 20 18 16 14 12 10 9 8 9 11
22 20 18 20 15 9 7 10 8 7 10 12 14 16 18 22 20 16 13 14 8 8 12 10 7 22 22 21 20 17 14 14 12 11 9 8 7 6 5 6 9 11 11 12
21 20 19 12 11 8 9 12 13 13 14 16 21 24 21 20 18 13 8 8 9 9 7 7 16 18 16 13 13 10 10 7 6 6 6 6 7 8 10 10 10 11 13 14
21 15 11 9 6 9 13 17 16 15 15 17 19 18 13 14 12 10 7 9 7 6 8 12 15 12 10 10 9 8 6 6 8 8 7 7 8 9 10 11 13 14 15 16
12 8 7 12 10 10 13 15 15 14 13 14 15 15 14 11 8 7 8 6 6 7 8 10 7 10 10 10 9 8 8 7 7 8 8 9 11 12 14 14 16 17 19 21
10 9 7 11 13 13 12 13 13 12 15 15 14 12 6 9 6 7 8 5 6 6 7 7 7 8 10 11 10 8 8 8 9 9 10 12 14 15 16 17 19 21 23 25
7 10 10 10 11 11 11 11 11 10 11 12 8 6 8 5 6 7 6 6 6 6 4 2 5 7 9 10 10 11 10 9 9 11 13 15 15 16 18 20 22 24 27 31

GFSNW_700_spd_027.txt.gz
Wind_Speed
52 74 66 63 56 53 52 48 37 47 51 46 42 35 30 17 16 12 14 16 14 15 17 17 17 18 15 16 14 13 14 10 11 12 11 13 10 11 13 10 7 7 4 9
49 53 71 67 58 60 58 51 35 43 52 47 37 30 27 23 18 15 17 16 13 13 16 14 15 16 18 13 16 13 12 11 12 10 10 10 12 13 13 11 8 11 5 5
47 53 75 67 59 63 59 42 38 46 59 43 34 35 31 26 21 16 17 16 14 13 14 13 12 13 15 16 15 15 14 15 16 15 6 0 9 13 15 16 12 13 17 14
52 59 75 69 61 63 58 43 43 48 58 51 38 34 30 28 24 17 19 18 18 16 12 11 11 13 14 16 16 13 14 13 17 18 11 11 11 11 14 20 22 18 17 15
56 70 79 63 55 62 63 45 43 35 32 46 35 36 33 31 25 20 22 18 19 16 14 13 10 14 13 12 14 13 14 10 13 12 12 15 14 16 17 19 20 22 23 23
55 57 76 55 58 67 69 43 39 37 35 50 39 39 31 32 25 21 20 20 18 16 15 14 13 15 13 10 10 12 10 11 8 8 8 8 14 22 22 21 21 20 22 22
52 68 59 51 70 71 62 38 37 44 39 52 44 32 30 30 26 19 21 17 16 18 16 14 13 11 12 13 14 12 13 11 10 5 4 1 9 13 13 13 15 17 19 19
50 59 53 74 72 71 55 32 38 32 34 41 38 32 30 26 26 18 24 22 17 12 13 14 11 10 12 14 15 15 13 12 8 5 8 11 13 11 12 8 7 7 7 9
68 43 63 72 71 69 57 39 29 27 38 30 37 32 31 28 27 25 22 19 16 14 14 14 9 7 8 5 5 16 15 15 10 8 4 4 3 8 9 9 8 2 6 8
51 60 71 69 69 66 44 43 29 21 26 24 31 35 31 25 22 23 26 23 18 13 15 17 9 9 9 6 7 7 13 16 15 12 8 7 10 13 10 6 4 9 15 25
64 69 67 67 65 62 43 42 35 25 23 27 31 24 27 26 26 28 28 23 23 19 16 15 10 11 12 8 7 7 7 7 8 9 6 7 7 4 3 7 15 20 23 22
58 61 65 64 63 56 41 38 37 29 23 24 23 31 28 28 26 23 26 22 22 20 14 16 13 11 9 12 6 11 7 10 5 8 3 10 9 16 15 21 23 23 24 23
61 62 62 60 56 50 42 35 30 31 25 20 20 24 29 27 32 36 27 29 24 21 22 17 15 10 12 11 12 10 12 12 13 13 6 8 11 19 18 17 20 23 25 26
57 57 55 56 55 44 37 32 31 26 27 25 23 22 27 29 28 33 29 28 22 20 17 19 20 16 12 14 12 10 10 11 11 15 16 12 9 9 17 24 25 26 25 25
52 53 55 54 51 41 34 31 27 24 23 24 22 24 23 23 25 30 30 26 25 21 22 20 21 20 17 15 15 14 17 12 15 10 15 19 20 25 29 28 27 27 27 27
48 49 50 49 48 42 33 28 29 24 20 17 23 28 29 24 23 26 28 26 23 23 22 23 22 19 17 14 16 18 19 20 20 20 22 23 25 29 27 27 27 29 32 33
43 45 46 46 45 41 32 17 25 25 13 11 16 24 28 25 25 25 23 22 24 25 23 23 21 19 19 19 15 18 20 22 24 24 24 24 25 26 27 29 32 30 29 28
41 42 45 46 45 36 24 21 20 22 12 12 11 14 26 28 28 26 24 22 22 22 22 22 21 21 21 20 22 23 23 27 28 28 26 25 26 27 29 26 25 26 28 28
39 41 41 43 36 30 25 20 26 23 12 8 8 16 21 25 24 24 23 23 23 20 23 24 23 24 17 22 24 25 25 28 28 28 28 28 27 23 23 24 25 22 19 17
39 40 46 41 37 26 25 15 16 17 14 12 12 13 12 21 25 23 22 22 21 15 23 24 26 28 27 27 27 28 27 27 27 27 23 21 21 21 19 15 13 13 13 12
36 40 41 37 36 28 21 8 12 11 15 17 15 14 15 17 21 22 18 12 10 10 15 17 14 22 23 25 28 28 26 21 18 16 16 15 13 10 9 10 10 10 10 12
28 27 25 29 24 9 5 10 10 9 11 12 20 19 18 18 18 15 17 13 8 8 11 11 9 22 20 23 22 21 18 13 10 9 7 6 7 9 9 9 10 12 13 13
28 29 25 19 11 9 10 15 13 11 16 19 17 20 20 18 19 15 10 9 9 10 8 9 18 18 19 17 17 15 10 9 7 6 6 7 8 10 11 12 13 14 15 15
26 21 15 9 8 10 9 16 16 17 17 17 17 20 17 17 13 10 7 9 7 7 7 10 15 14 14 14 11 10 9 7 6 7 8 10 12 13 14 15 16 16 16 17
16 9 8 10 9 8 11 13 15 16 16 16 16 17 16 13 9 8 8 6 6 8 10 14 9 10 11 11 10 9 7 8 9 10 13 14 15 15 16 16 17 18 19 21
8 6 8 13 12 12 14 15 15 14 13 14 14 11 8 10 7 8 8 6 7 8 8 8 7 8 10 11 11 11 11 11 12 14 15 15 14 16 17 18 19 21 22 24
8 9 9 11 13 13 12 11 11 12 13 14 10 8 9 6 6 7 7 7 7 6 5 5 5 7 10 12 13 12 14 15 15 15 14 15 17 18 19 20 21 23 26 28

GFSNW_700_spd_030.txt.gz
Wind_Speed
77 77 73 68 63 58 47 49 50 44 46 49 52 41 36 27 20 18 16 16 17 17 16 16 16 16 17 14 13 10 11 7 9 12 7 8 10 7 11 10 8 6 4 12
60 64 71 73 66 64 53 52 45 32 46 57 47 44 33 30 23 19 20 18 14 14 15 13 15 13 11 12 12 10 9 7 13 15 8 11 15 14 14 10 10 10 5 4
57 53 53 50 64 67 52 52 42 36 48 57 44 50 34 32 27 20 20 18 15 14 15 15 12 14 13 11 13 17 15 10 14 13 13 5 14 12 14 15 12 14 18 17
56 55 53 48 64 70 53 53 53 46 55 62 45 38 31 32 30 27 21 20 20 16 14 16 12 14 12 16 17 16 17 14 14 18 19 7 9 9 10 16 19 20 18 15
57 52 52 52 71 72 58 62 43 44 16 52 46 42 43 36 32 26 23 21 21 18 13 15 13 14 14 11 16 16 15 9 12 13 12 13 15 15 16 17 17 19 21 21
50 50 53 54 78 71 66 61 47 29 37 45 52 52 41 36 30 27 22 23 19 20 16 14 13 11 12 8 11 16 10 10 6 7 9 10 14 19 18 21 19 18 20 19
44 46 51 60 68 70 63 59 47 27 39 38 65 45 35 33 35 24 24 22 19 23 21 15 12 11 14 14 12 10 11 10 10 6 6 1 11 8 11 9 10 11 13 11
37 47 50 63 64 62 65 49 40 30 38 42 48 39 39 33 31 25 23 22 24 25 20 16 11 12 12 11 13 14 11 11 10 6 9 11 15 8 6 4 4 3 3 5
43 46 50 57 65 62 74 51 41 26 39 46 52 40 37 36 34 29 32 27 20 19 19 13 9 7 10 8 4 13 14 14 12 8 4 4 3 8 8 4 4 3 9 8
46 45 51 67 60 70 68 54 29 35 35 33 47 45 42 31 32 27 31 31 24 22 18 15 10 11 9 8 9 8 12 16 16 12 7 6 7 11 13 4 4 8 10 15
46 43 57 66 59 80 57 53 28 38 24 34 46 37 39 27 28 32 32 30 25 22 16 15 10 10 13 9 7 8 6 8 10 12 6 8 10 7 3 9 10 14 22 21
37 43 54 57 77 71 51 38 32 29 19 38 45 41 43 33 25 29 30 27 23 22 18 13 11 11 14 15 8 11 8 9 5 9 1 7 7 11 12 15 18 20 19 19
38 44 54 71 81 52 42 47 35 16 39 40 35 32 34 35 27 26 28 29 19 20 18 14 14 11 14 13 15 10 11 12 12 12 8 5 7 12 11 8 17 18 21 24
43 62 70 78 67 47 36 23 11 19 29 30 32 32 32 33 35 30 24 29 25 22 17 16 16 14 12 14 9 11 11 13 8 10 12 14 10 15 18 21 22 26 25 25
59 76 71 68 57 46 18 26 20 16 16 19 25 24 28 31 30 26 31 28 24 22 19 18 19 18 16 14 13 13 14 12 15 13 17 18 23 27 25 27 28 28 25 28
56 67 63 68 54 33 29 25 24 21 21 8 23 27 24 27 30 27 28 29 24 23 24 23 24 20 18 17 18 18 19 18 18 21 21 22 27 28 30 29 27 27 28 31
60 65 64 54 47 35 31 21 26 21 18 14 23 19 26 27 29 29 28 29 29 28 27 26 23 22 22 20 18 21 19 21 22 22 22 27 27 31 29 26 28 30 30 28
56 56 55 45 47 14 19 15 21 17 21 17 11 12 27 30 28 27 30 32 31 29 25 24 23 22 23 22 23 22 23 27 26 26 26 30 30 26 27 29 29 25 25 25
47 47 46 39 28 21 18 13 14 19 19 8 8 15 24 31 29 28 26 28 27 23 25 24 23 25 19 24 25 26 27 30 30 28 26 25 26 27 26 24 23 21 18 15
38 37 45 35 30 18 18 12 15 14 16 8 8 16 21 29 30 29 27 22 20 17 23 21 26 28 27 25 26 28 27 30 28 26 24 25 25 22 20 20 16 13 13 12
43 44 41 23 27 20 18 11 15 13 5 9 10 19 14 22 29 27 22 15 14 10 15 18 19 27 26 27 30 30 30 30 27 25 22 19 17 15 12 10 11 11 11 12
38 39 37 29 29 10 8 8 9 8 11 12 16 15 14 16 19 16 21 11 10 7 11 13 11 22 21 22 24 26 25 22 19 16 14 13 10 10 10 10 11 12 13 14
33 29 29 22 10 4 6 7 7 9 14 16 20 18 17 16 16 12 10 10 10 8 9 8 17 16 18 21 23 21 19 15 13 12 11 10 10 10 10 11 12 13 15 16
27 20 15 8 9 8 8 16 13 12 10 16 16 19 18 16 15 9 7 10 8 7 6 10 14 16 18 19 18 16 13 12 12 11 9 9 9 10 11 13 15 17 17 18
19 11 10 11 10 12 11 13 14 16 13 12 16 17 15 12 8 7 7 7 6 7 8 12 11 11 13 12 14 12 13 12 11 9 10 10 12 13 15 16 17 19 20 22
9 6 10 13 11 11 12 11 11 10 10 10 12 11 7 9 6 8 8 5 6 8 11 10 8 7 8 13 12 12 11 11 10 11 12 14 15 16 17 19 20 21 22 24
7 10 9 10 12 10 8 9 13 13 11 11 7 8 6 6 5 6 7 8 9 8 7 4 3 4 8 10 11 12 12 13 13 14 15 16 16 18 20 21 21 24 26 26

GFSNW_700_spd_033.txt.gz
Wind_Speed
56 67 72 69 65 60 55 53 50 40 44 47 52 55 43 42 33 22 15 15 22 19 22 25 20 20 16 19 14 12 12 6 14 24 6 11 14 7 7 10 6 3 1 7
46 50 69 68 69 65 59 58 49 30 45 53 59 53 51 43 37 27 13 23 18 16 19 13 23 20 19 15 18 12 15 7 12 12 10 11 12 14 20 12 12 12 5 4
48 50 54 53 60 67 61 56 45 46 47 54 54 54 53 50 42 26 17 20 19 18 15 18 21 19 15 19 20 20 19 10 10 10 9 7 10 10 12 14 13 10 15 18
44 50 57 55 50 63 66 59 51 51 55 59 53 45 49 52 45 35 21 23 24 19 15 19 16 18 14 14 12 13 16 19 18 17 18 14 10 14 8 14 16 19 18 14
48 50 54 57 55 61 70 56 54 59 33 48 49 43 56 55 45 35 28 23 23 21 18 20 24 15 16 14 15 16 15 14 14 16 18 16 11 14 20 14 14 13 13 18
45 50 55 62 60 69 80 61 48 50 56 22 53 60 54 51 43 33 25 23 21 23 23 21 18 22 17 15 13 17 17 15 14 13 15 17 20 22 20 17 17 19 18 13
44 53 60 61 62 73 80 65 54 37 48 40 43 54 55 43 45 34 26 26 24 26 25 20 18 15 13 17 15 11 17 14 10 7 8 0 9 6 9 4 5 6 8 11
43 58 57 63 61 76 70 60 56 37 43 47 37 52 56 38 42 34 29 31 32 25 27 24 15 13 12 16 16 14 17 17 11 7 13 9 11 9 10 8 5 8 12 12
44 54 50 60 61 76 73 66 48 27 34 43 41 39 54 47 42 35 37 34 35 30 27 24 12 8 10 10 15 19 19 19 16 11 5 7 4 6 8 7 7 10 13 15
45 54 48 59 55 77 67 65 49 50 15 19 41 47 56 50 39 37 38 36 35 34 35 24 14 12 12 12 14 12 18 19 19 17 10 6 8 10 11 9 8 14 13 13
43 47 49 56 53 78 65 62 48 43 7 22 35 34 53 46 39 40 36 35 33 34 29 22 13 10 18 11 14 12 11 14 16 14 9 9 13 13 12 12 16 13 12 17
37 40 51 55 49 77 67 61 48 39 17 28 29 43 44 52 42 37 35 39 34 29 26 17 17 13 21 19 13 12 12 13 11 8 4 5 7 12 12 14 13 17 23 22
39 41 52 53 57 90 64 49 32 29 32 31 35 48 43 34 39 34 34 43 29 30 27 23 16 14 15 20 23 14 16 11 11 9 5 7 10 18 20 20 19 22 17 20
39 42 44 38 66 78 71 44 42 39 21 40 40 41 43 39 32 32 29 31 29 26 23 22 19 15 13 15 12 19 19 18 16 15 16 15 16 20 20 21 24 23 20 25
34 34 38 42 70 70 46 36 29 23 16 14 26 47 40 33 28 32 32 29 32 30 24 23 19 17 15 13 16 18 19 19 18 19 20 23 26 25 24 23 23 25 26 26
31 36 40 60 64 69 42 26 24 47 24 7 21 36 34 31 25 23 22 20 23 23 24 24 22 19 18 13 22 22 20 19 19 18 19 23 23 22 24 26 27 27 26 25
45 53 65 73 49 38 49 33 17 25 17 17 21 28 32 33 31 31 30 27 29 29 27 25 24 22 20 22 23 21 22 20 20 22 24 26 27 25 25 26 27 27 27 28
48 59 63 49 41 31 23 31 22 25 17 20 21 21 29 36 37 35 35 34 34 32 29 27 26 23 24 26 27 21 21 21 22 23 26 29 28 25 25 26 26 26 27 25
51 61 55 54 25 17 17 22 20 19 19 17 15 24 24 27 31 33 33 33 32 29 30 27 23 26 24 24 21 21 23 25 25 26 27 26 26 25 25 25 26 25 20 17
60 42 45 22 24 26 21 19 18 14 14 16 14 19 20 29 28 29 28 26 20 18 26 25 27 27 28 26 23 21 24 27 27 26 26 24 24 25 27 24 19 16 13 12
44 34 26 25 19 24 12 11 10 10 9 13 11 17 17 26 31 29 24 17 17 11 17 20 18 28 26 25 25 26 28 29 28 26 24 23 25 23 19 15 13 12 12 11
41 37 23 31 14 7 4 6 3 3 7 7 6 13 15 22 28 16 22 9 11 6 14 15 14 18 20 22 24 27 28 28 26 23 21 19 16 12 10 10 10 11 12 13
33 27 25 7 6 3 5 6 8 6 9 15 12 14 16 15 17 10 10 9 10 7 9 8 10 11 15 17 20 23 24 22 21 16 12 10 10 10 10 9 10 12 13 14
18 16 9 3 5 5 4 9 12 7 6 10 20 17 12 12 14 7 7 8 9 8 8 9 12 14 16 19 22 21 20 17 10 11 11 10 10 10 10 11 12 13 14 15
14 7 3 4 5 8 9 10 12 10 6 13 15 16 14 15 8 8 6 7 6 7 8 9 11 12 14 16 16 15 14 11 13 12 10 10 9 9 10 12 13 14 16 18
9 5 7 9 9 9 10 10 12 16 15 11 14 11 7 7 6 7 6 5 5 6 7 9 10 11 12 10 9 13 12 9 9 11 10 8 9 11 12 13 15 17 19 22
11 12 12 11 14 11 11 10 10 11 13 16 10 8 7 6 5 6 6 5 4 6 6 6 6 6 6 6 10 11 10 10 10 10 10 12 13 14 14 17 20 20 21 25

GFSNW_700_spd_036.txt.gz
Wind_Speed
52 44 66 70 68 63 59 55 52 45 44 46 52 58 47 40 41 36 22 15 11 22 24 22 25 24 20 8 20 24 28 21 13 16 15 11 11 19 13 10 6 5 3 7
57 46 53 64 64 65 62 57 46 33 46 56 60 56 48 47 44 42 37 23 13 12 25 28 25 25 20 21 18 25 25 15 10 10 16 17 21 18 16 15 13 15 6 6
56 53 52 54 51 49 59 49 43 37 51 58 55 60 52 52 48 47 38 29 20 17 20 11 22 24 20 17 20 21 21 18 19 21 15 8 10 11 10 15 13 13 18 16
55 54 46 53 54 51 53 53 45 60 59 65 64 48 54 54 53 46 40 32 26 20 17 13 18 19 25 23 27 25 22 21 19 17 16 15 12 11 13 11 13 15 17 19
56 51 55 60 62 58 62 57 50 53 48 62 63 53 54 55 52 46 42 33 24 20 22 19 17 20 23 23 23 22 19 19 21 22 24 24 18 16 19 21 16 13 10 8
53 50 60 58 67 61 68 55 48 43 57 36 61 72 59 53 50 48 44 32 22 23 23 17 20 15 19 18 16 17 18 21 18 18 19 18 20 24 21 22 25 21 20 14
50 57 59 54 70 65 67 63 56 41 48 45 49 60 55 52 51 46 41 35 27 18 23 21 22 17 19 19 19 19 16 19 17 11 11 1 13 10 11 15 18 17 15 16
52 63 47 57 71 62 68 65 53 37 49 53 37 27 52 48 48 46 45 37 29 24 24 25 23 21 22 19 20 21 18 19 12 7 14 11 10 12 15 14 12 12 12 16
50 46 47 56 72 62 68 69 48 52 36 47 50 35 28 51 52 45 46 40 19 30 30 29 21 16 16 14 15 21 20 21 21 12 5 7 10 21 17 16 15 17 14 12
45 46 48 58 72 63 70 74 60 27 32 39 43 49 32 40 49 45 46 43 29 38 35 30 22 20 21 15 18 20 25 25 24 22 14 11 16 12 13 17 13 19 18 16
38 44 47 57 73 65 72 70 56 28 32 31 27 43 47 37 46 51 51 41 36 43 33 31 22 14 22 19 17 20 23 22 21 21 14 14 17 21 22 16 16 16 15 14
34 41 50 58 72 57 65 69 52 35 28 27 38 41 47 45 41 51 44 47 37 33 36 24 26 17 23 22 16 20 16 19 16 14 9 11 12 18 17 15 11 12 13 15
31 40 54 65 62 51 66 72 61 51 24 11 33 43 41 44 43 52 45 39 38 43 33 23 25 28 23 24 24 19 22 13 16 14 15 13 13 14 15 15 15 15 18 17
42 37 44 57 55 50 69 80 61 36 21 14 36 20 32 37 41 43 45 36 34 32 34 27 30 24 24 21 17 27 22 21 20 19 18 18 18 19 19 19 20 20 20 20
43 46 42 50 50 50 65 72 65 38 25 21 24 23 25 33 30 41 41 28 35 35 43 28 29 29 24 22 20 21 25 24 26 26 21 21 19 21 21 23 23 22 22 23
35 40 42 44 40 44 71 70 60 37 31 18 24 28 27 32 32 42 47 31 38 40 40 36 25 28 23 19 25 23 23 23 22 20 19 19 20 22 25 25 25 25 26 27
29 29 30 36 34 54 72 55 46 36 31 27 10 21 27 38 38 43 37 50 40 35 33 31 31 25 21 22 22 22 24 22 21 18 18 20 21 24 24 26 27 27 28 28
27 27 32 30 26 51 65 42 29 24 23 30 13 7 15 48 31 27 32 38 38 28 35 28 22 20 25 24 27 22 19 20 23 23 21 23 25 26 27 27 27 28 28 26
30 30 27 29 27 53 54 35 14 10 28 19 21 21 19 31 29 26 23 23 25 21 24 26 25 29 25 25 24 24 23 23 24 24 25 27 28 27 27 27 27 27 26 25
29 36 39 45 65 45 29 12 19 11 11 8 14 20 18 28 31 30 27 20 15 13 19 19 27 28 29 28 26 23 21 24 27 27 29 28 27 26 25 25 25 25 22 19
41 33 38 40 39 29 28 13 10 8 7 8 16 24 22 23 25 26 21 15 13 9 15 18 21 30 29 27 26 25 26 27 28 28 28 27 27 26 26 24 22 17 15 13
31 41 40 20 8 9 8 10 9 6 7 10 11 13 16 20 21 15 16 11 8 7 14 16 14 21 23 29 28 28 28 29 29 29 28 26 24 24 20 17 15 12 11 12
27 30 10 8 7 7 8 6 8 8 15 17 18 22 21 19 19 10 10 9 9 6 8 6 14 18 22 23 22 24 26 27 27 24 19 18 17 16 15 14 13 12 10 11
14 8 9 7 7 6 8 14 15 14 19 19 19 15 12 11 21 7 8 7 7 9 8 11 13 12 14 17 21 24 22 21 18 17 16 15 15 16 14 12 10 9 10 12
4 6 6 8 12 12 13 17 15 14 12 15 17 16 11 13 5 6 5 9 6 7 9 11 16 18 18 17 17 16 16 16 14 14 15 14 12 11 10 8 7 9 11 12
6 7 13 14 12 15 14 13 11 10 9 12 15 11 5 6 5 6 4 5 6 8 8 8 9 9 9 10 12 10 9 11 11 10 10 11 11 8 6 7 9 11 12 14
8 12 10 9 8 9 10 9 9 11 11 15 10 9 5 7 6 7 7 5 6 7 7 8 7 7 6 6 7 8 7 10 10 9 11 9 5 7 8 10 12 14 16 17

GFSNW_700_spd_042.txt.gz
Wind_Speed
56 50 48 41 48 48 47 60 62 60 53 47 51 52 51 32 37 32 27 15 16 18 23 27 30 26 32 21 20 24 25 14 24 27 20 17 18 21 21 18 5 7 5 17
56 52 48 44 47 47 49 53 56 43 52 50 61 54 47 44 46 41 38 27 18 13 14 20 26 32 31 29 16 25 27 19 19 17 20 21 20 15 16 13 15 14 6 14
58 54 50 50 54 52 50 47 40 39 41 62 63 60 42 50 50 44 44 37 27 18 14 14 21 26 30 30 25 21 26 28 24 23 22 16 15 19 21 18 16 18 22 27
59 56 51 59 57 50 48 57 43 50 55 65 69 52 51 52 51 52 45 42 43 31 18 8 14 26 29 27 27 26 26 27 28 27 25 23 21 20 22 23 22 23 24 25
58 56 53 52 59 53 55 54 47 47 57 68 63 45 51 53 53 44 48 47 38 43 36 15 7 9 26 26 26 24 28 19 23 23 24 23 21 21 22 20 21 23 22 24
56 57 56 53 65 61 61 55 54 49 52 54 60 73 59 57 50 52 39 40 44 36 39 28 26 21 19 16 23 26 27 28 21 23 21 20 24 26 27 30 32 30 31 28
56 52 53 57 66 67 55 59 57 48 39 46 71 58 60 52 57 52 48 43 30 34 39 25 25 25 23 22 24 28 32 29 24 17 15 4 26 30 28 31 33 33 34 34
52 52 56 53 62 59 56 57 61 47 42 50 48 49 38 53 53 49 47 39 34 13 18 24 27 21 23 23 24 30 32 29 22 13 17 22 20 19 14 14 21 21 24 28
52 51 56 58 53 53 47 61 60 48 32 45 42 41 36 44 53 52 52 42 18 37 33 23 23 11 19 17 25 30 30 29 30 16 7 8 19 18 19 19 30 22 16 14
45 56 57 53 51 52 55 72 44 56 23 24 37 51 49 36 40 49 50 46 37 28 24 22 22 28 15 25 28 25 29 27 26 26 16 16 20 17 17 16 28 16 17 15
46 55 56 47 50 55 60 71 54 65 41 19 19 36 36 45 41 39 37 29 41 36 36 29 21 18 25 25 28 33 33 30 25 26 17 14 21 21 26 26 19 20 18 13
44 54 54 50 50 49 45 72 42 57 49 28 24 28 33 32 32 32 28 29 32 42 37 28 22 21 20 30 30 31 34 35 32 27 26 25 17 13 16 19 23 17 12 11
43 42 48 50 47 51 52 69 41 34 44 35 21 28 30 27 34 28 30 24 18 21 38 38 28 19 32 24 30 28 35 30 36 28 29 28 26 23 19 16 17 20 16 12
41 40 41 43 43 47 50 70 46 33 32 37 30 17 24 31 36 38 38 27 25 18 27 31 37 30 27 29 25 31 33 32 32 33 33 30 25 20 19 17 17 17 16 15
36 37 37 38 41 42 43 57 50 28 16 23 43 22 23 24 27 42 44 39 27 33 27 35 34 41 30 24 29 33 33 32 33 32 28 27 21 15 16 18 18 17 17 17
30 33 35 33 33 34 41 38 36 17 28 18 34 28 29 32 27 28 38 32 31 31 36 29 31 37 33 26 34 30 35 32 27 30 23 20 16 18 18 18 18 19 20 22
33 34 32 30 28 33 36 39 33 32 16 30 7 8 20 27 23 29 30 35 35 34 34 35 34 34 39 33 33 32 33 35 31 29 27 25 21 22 21 21 21 22 25 27
34 34 32 28 24 22 30 43 32 34 14 23 4 4 11 15 14 35 30 35 37 39 39 35 33 27 26 33 37 37 33 28 28 28 28 29 24 22 21 23 24 25 27 30
35 39 34 33 30 32 41 39 20 9 27 13 8 3 1 5 8 16 30 33 35 33 42 43 35 34 32 33 26 19 26 25 26 24 25 31 27 25 26 27 28 30 33 33
41 41 39 30 30 32 30 17 10 12 18 23 13 8 5 10 10 7 10 22 24 24 31 32 38 37 38 40 33 36 35 24 21 20 20 29 28 30 32 33 33 34 35 29
30 30 32 31 29 31 27 17 16 12 10 15 26 28 21 17 11 13 12 14 10 19 29 27 27 30 38 34 25 27 29 21 19 21 28 31 32 30 30 32 33 33 29 25
30 26 27 27 19 24 8 8 9 5 7 7 14 21 17 15 12 6 5 8 10 5 17 19 18 28 33 23 23 31 25 27 31 33 32 31 32 31 28 27 24 24 19 22
34 27 21 22 15 10 7 11 16 8 11 15 17 17 19 15 11 5 3 1 3 11 8 5 5 9 16 21 24 30 29 31 32 31 28 26 24 22 18 18 20 22 23 22
17 7 16 10 8 9 9 13 13 10 17 18 19 16 10 12 8 6 5 5 9 6 5 6 10 14 17 20 21 20 20 20 20 20 19 17 17 20 19 17 19 19 19 19
5 10 6 6 10 12 11 12 12 13 17 18 17 14 8 13 5 5 6 5 4 4 2 3 5 9 13 15 15 14 13 13 15 15 16 17 17 13 14 16 15 15 13 13
9 10 15 14 13 14 13 13 13 16 17 15 11 7 5 3 6 4 4 5 4 3 1 1 1 3 7 9 11 12 12 12 12 14 14 10 11 12 11 10 10 12 13 12
12 16 16 13 11 11 10 9 10 15 17 13 6 4 3 4 4 5 5 6 4 4 4 5 7 7 5 7 8 8 9 8 7 6 6 8 9 9 9 10 12 13 11 9

GFSNW_700_spd_045.txt.gz
Wind_Speed
55 53 54 49 44 40 41 44 52 53 45 48 53 62 56 44 44 30 31 15 18 18 19 25 28 35 33 16 31 30 24 15 21 22 19 18 16 14 13 9 6 8 5 11
59 56 54 52 47 46 46 50 48 52 38 50 57 62 57 51 36 41 37 31 16 16 12 15 25 28 27 22 21 31 29 16 17 14 15 20 19 19 16 14 15 15 7 8
58 57 56 55 50 50 54 55 43 39 38 59 62 53 50 44 47 37 42 33 29 16 13 12 12 24 26 26 26 19 16 25 20 21 21 15 15 17 19 18 16 18 23 25
61 54 57 56 52 54 58 61 36 56 50 55 65 49 54 57 45 51 42 42 38 29 18 8 12 15 23 25 31 33 29 24 25 29 27 24 23 24 20 20 23 25 25 25
59 55 58 57 54 60 60 65 46 52 50 56 60 43 48 55 58 46 52 48 42 37 36 17 10 11 12 19 27 29 31 26 24 26 26 27 26 23 20 19 20 23 21 27
60 57 54 59 55 66 67 66 56 56 62 48 50 60 49 43 47 51 46 47 42 40 36 33 30 21 17 11 15 19 29 28 27 22 24 24 23 26 25 24 26 27 31 33
58 56 54 61 56 69 68 68 56 53 45 52 63 57 42 44 56 51 46 37 34 37 32 29 28 28 23 21 22 21 20 24 26 19 18 6 23 25 23 25 28 31 33 32
56 54 52 60 56 68 66 61 54 54 43 45 55 50 43 34 42 45 36 39 35 24 21 22 30 34 28 27 25 26 24 24 20 16 21 22 21 23 22 23 36 26 26 20
55 54 52 59 53 66 65 61 53 49 39 42 48 41 41 39 41 43 41 28 30 24 19 14 14 16 20 12 16 23 26 25 28 15 11 9 25 23 23 17 37 27 21 18
46 47 51 55 51 62 62 63 50 48 45 41 32 39 39 36 37 39 41 39 29 27 34 23 18 16 26 13 16 19 25 27 32 30 19 20 21 19 17 17 30 21 15 11
45 46 48 46 49 57 70 58 43 50 47 23 30 34 37 33 37 42 36 31 38 32 28 19 20 17 27 29 21 25 28 25 24 29 21 15 26 23 26 25 24 21 15 13
36 42 43 43 51 53 57 60 45 44 49 26 15 43 36 35 33 36 34 33 36 41 32 35 20 17 20 25 32 30 30 33 33 28 34 30 23 23 25 28 21 18 16 11
37 33 46 47 46 51 58 49 43 51 43 56 23 17 31 31 35 34 35 35 27 26 31 30 28 18 32 29 36 33 35 31 37 32 33 33 32 30 29 28 22 17 12 13
33 43 47 45 45 43 40 41 39 37 38 46 36 12 31 23 24 31 35 34 37 25 20 30 28 26 31 27 36 29 28 32 37 38 34 31 30 29 30 28 22 19 18 16
48 47 39 38 36 38 34 37 37 42 34 27 44 21 18 24 23 25 28 29 32 32 26 28 32 33 28 33 33 37 35 32 33 34 28 28 24 26 26 22 22 21 20 19
45 44 41 40 35 30 33 33 43 56 30 10 18 43 21 19 25 29 35 34 36 29 31 27 32 28 22 36 39 34 27 30 29 27 32 24 28 26 22 24 22 23 23 21
34 32 29 30 31 28 27 20 37 40 28 17 9 32 32 12 17 21 23 31 39 36 33 35 32 28 32 32 36 31 36 33 28 24 23 27 27 30 25 25 23 25 25 25
31 29 28 27 25 24 21 27 33 27 26 16 7 16 26 22 20 19 24 24 35 34 34 36 36 37 35 34 38 36 32 32 30 23 27 31 30 28 27 24 25 27 28 27
36 35 30 29 29 30 26 18 20 20 15 9 12 20 21 17 20 18 16 28 33 32 40 40 33 35 31 29 29 27 25 28 38 40 33 38 33 33 28 24 27 29 30 31
33 31 28 27 22 31 23 21 16 11 11 20 19 5 16 12 6 18 8 18 26 26 30 31 43 42 34 33 25 18 18 18 21 24 24 23 25 28 30 30 31 35 36 37
35 32 14 24 27 30 15 11 17 10 9 18 27 18 12 7 5 5 2 3 8 12 18 28 18 29 37 41 35 29 28 29 31 31 33 29 27 26 25 25 31 33 35 36
19 34 39 36 22 10 8 7 10 11 12 12 18 20 20 12 4 4 6 6 8 3 16 19 15 20 25 29 33 35 34 34 32 24 24 21 18 24 26 27 27 29 28 30
39 34 20 20 10 10 10 8 8 6 10 12 16 14 13 11 6 4 4 4 4 9 9 5 2 5 22 24 26 29 33 27 15 19 18 22 22 24 23 21 21 23 23 25
27 16 11 7 9 13 18 14 14 9 11 15 14 10 14 12 9 6 4 6 8 2 3 5 4 6 7 9 11 12 13 16 20 20 19 20 19 16 14 13 15 19 22 24
9 11 5 5 7 10 10 11 11 7 12 19 19 13 8 9 4 5 5 3 4 5 4 5 2 1 5 6 6 6 7 8 11 11 12 11 9 10 13 16 17 19 18 14
12 8 13 14 11 13 14 14 14 13 15 16 12 9 5 5 5 3 5 4 5 4 3 2 3 4 3 3 5 5 5 5 6 7 7 8 8 9 11 11 12 11 10 9
11 13 15 17 17 17 14 13 15 14 12 11 6 4 4 6 5 6 6 7 6 4 2 3 5 6 5 4 5 6 7 5 4 3 1 2 4 6 7 8 8 7 8 10

GFSNW_700_spd_048.txt.gz
Wind_Speed
54 52 48 47 43 41 40 41 45 39 38 50 53 51 53 28 34 27 35 20 16 16 16 23 24 30 26 15 32 40 30 16 17 16 14 17 14 14 16 13 8 9 12 18
52 53 51 50 47 46 43 47 48 37 36 52 56 62 41 41 30 36 30 28 21 24 19 13 25 25 28 21 20 31 32 20 18 16 17 20 17 17 16 16 16 16 9 6
55 53 54 51 52 49 51 54 46 40 41 46 64 70 49 45 36 35 28 26 30 20 17 20 13 25 25 29 20 25 31 25 26 23 21 18 17 20 21 21 16 16 18 14
55 52 54 54 52 54 58 63 44 55 55 49 60 58 58 42 47 37 33 28 32 26 18 14 17 21 24 23 32 22 33 28 28 27 22 21 20 17 19 21 20 19 19 20
61 62 60 55 56 54 66 64 50 50 40 50 58 60 57 47 41 37 38 36 32 32 23 14 15 16 18 14 27 33 30 21 19 20 20 23 26 24 24 24 22 22 22 25
58 61 66 61 59 58 71 63 59 42 48 40 53 55 54 55 40 43 36 35 23 37 38 27 14 24 15 9 9 13 27 27 20 22 20 17 17 28 23 22 23 23 24 25
59 59 61 64 64 59 69 61 68 42 40 41 55 65 50 46 45 44 30 30 35 27 35 33 26 25 22 21 18 16 13 24 19 17 14 8 20 15 20 24 23 21 26 27
59 57 59 58 61 57 68 63 67 58 37 39 40 46 44 39 40 35 38 27 29 32 30 30 20 24 30 29 20 20 19 19 12 11 16 17 16 22 21 22 25 19 26 27
50 56 58 56 59 57 66 58 63 51 51 37 32 36 36 45 42 37 34 25 26 28 26 14 14 13 20 11 15 22 23 26 19 15 10 8 18 20 17 18 34 19 16 16
49 53 53 54 56 55 63 55 57 58 33 31 30 36 41 39 36 37 36 29 31 30 24 21 17 14 13 24 15 12 25 28 27 25 12 14 17 18 16 15 30 17 19 19
44 50 47 56 54 58 57 56 53 54 40 29 27 31 30 33 37 41 33 31 30 31 26 21 13 12 15 16 24 17 17 19 21 21 16 16 22 22 24 26 20 20 21 20
42 43 47 44 51 60 50 56 62 52 38 31 35 26 32 39 39 35 34 47 40 36 23 18 16 15 14 19 23 31 25 19 14 21 21 28 22 19 22 21 22 24 23 21
40 44 45 40 55 48 46 57 57 52 44 35 16 35 33 32 42 35 33 35 37 41 41 26 22 17 21 25 27 24 34 36 36 28 28 29 27 27 28 28 27 27 25 22
38 40 40 43 45 48 47 54 47 47 36 34 29 32 34 32 36 38 37 27 36 30 22 29 29 25 25 24 22 30 30 31 37 40 34 29 31 29 29 26 23 25 25 23
39 35 44 45 46 50 47 46 42 37 32 14 22 31 17 40 42 44 40 35 32 34 27 30 31 28 19 25 30 34 32 33 34 41 35 35 34 31 26 25 24 25 24 24
38 40 43 45 44 39 36 35 42 49 39 22 7 21 35 14 28 43 43 43 31 29 34 28 30 32 33 23 33 34 35 34 28 33 34 31 24 24 24 27 23 23 25 25
39 37 34 32 31 30 30 34 36 31 24 20 5 4 25 12 16 25 34 35 34 34 31 34 24 28 31 33 35 22 24 29 24 26 33 32 28 27 24 24 28 24 26 28
37 34 34 31 29 21 21 21 23 33 33 19 4 3 10 16 12 21 25 28 31 31 33 32 36 32 28 31 34 31 30 20 27 31 32 34 32 29 29 27 29 28 31 31
34 30 27 25 22 14 14 15 18 32 25 9 4 7 7 18 17 14 18 22 24 33 38 38 30 30 24 26 29 26 22 30 31 30 31 31 28 31 32 25 30 35 35 36
27 27 23 25 30 28 17 20 19 26 27 17 16 15 14 16 18 20 16 13 19 11 29 29 41 32 34 30 25 21 18 20 24 27 32 36 39 38 40 31 32 30 27 35
31 30 30 41 25 18 9 11 11 11 10 14 16 19 19 14 18 21 17 7 10 13 17 25 15 24 36 34 30 28 28 31 24 22 24 25 27 33 32 28 28 36 39 42
31 26 33 31 15 6 5 7 8 8 7 7 13 23 25 12 13 10 15 7 5 3 22 17 8 8 16 24 29 34 37 41 34 34 35 34 36 35 35 35 33 30 25 25
36 36 25 18 6 7 7 10 6 9 10 11 17 24 19 14 12 5 8 7 5 6 5 4 4 1 9 16 20 27 31 32 33 32 36 41 32 23 16 21 25 28 27 25
12 9 12 10 7 9 10 14 11 13 13 11 16 16 15 13 12 7 5 7 9 4 4 3 6 1 3 2 1 2 3 5 9 12 14 16 23 24 20 19 16 15 17 19
6 9 5 5 6 8 13 13 11 14 10 19 21 19 9 11 7 5 6 4 5 6 4 5 4 3 2 1 1 1 2 3 3 4 4 6 6 6 7 7 8 11 14 13
4 5 5 6 4 8 15 20 18 12 16 23 16 9 6 5 6 5 6 5 5 4 6 5 3 3 2 2 3 3 4 6 5 4 3 2 2 3 5 7 8 8 10 12
6 7 7 10 12 10 12 10 11 12 12 13 10 5 5 7 6 6 6 9 10 8 8 8 5 5 5 6 7 8 7 4 2 2 4 4 2 2 4 6 7 8 8 7

GFSNW_700_spd_051.txt.gz
Wind_Speed
39 41 41 41 39 39 39 41 46 40 40 39 44 55 64 60 36 34 26 28 25 30 21 25 27 32 33 28 33 37 31 19 21 23 22 22 22 23 23 21 16 14 12 19
52 49 45 44 45 45 46 50 47 43 40 50 51 58 64 56 48 38 32 31 25 23 21 18 26 24 23 16 33 36 32 27 22 20 18 18 21 21 22 24 19 17 12 12
54 57 56 51 50 49 52 56 49 41 45 50 44 51 65 56 48 41 34 32 32 27 22 20 9 27 22 26 19 33 35 29 33 26 27 22 25 23 23 23 20 20 23 22
52 51 49 51 55 55 59 67 45 59 54 53 59 50 45 52 54 47 37 35 33 34 30 24 23 18 22 21 25 28 31 37 29 31 25 22 27 28 27 30 29 26 24 22
53 53 51 52 56 58 65 69 45 45 43 56 46 45 54 53 50 45 47 41 34 31 32 26 22 17 18 14 24 30 26 28 32 33 27 24 25 24 25 26 28 29 26 26
49 52 54 56 66 63 71 70 68 36 54 40 49 50 53 59 51 51 48 42 28 34 25 17 18 20 22 18 7 19 21 27 26 29 26 27 29 27 27 27 27 25 28 25
51 57 58 64 61 65 70 64 59 41 38 44 44 50 46 49 51 49 44 43 38 32 26 21 15 20 20 21 17 7 13 21 27 19 20 17 22 21 23 28 27 24 24 23
47 58 65 62 63 65 65 58 59 49 41 39 42 35 39 39 46 41 40 41 39 29 27 18 14 13 22 20 27 9 15 16 20 21 22 21 22 21 21 20 23 23 24 22
42 51 64 56 71 61 62 59 47 52 42 41 36 35 36 42 46 42 37 43 34 26 31 23 23 14 13 15 18 24 21 21 23 16 20 19 27 23 15 16 24 18 19 20
41 46 55 57 62 60 61 57 50 56 47 33 28 33 35 39 43 39 46 37 36 39 35 28 25 24 19 20 18 18 20 22 29 26 17 18 18 17 19 20 29 13 14 15
37 47 56 54 57 64 61 51 49 58 40 29 29 21 31 38 45 42 35 40 28 29 24 26 21 20 23 22 23 26 17 14 19 22 23 19 17 20 22 27 18 15 15 15
40 50 49 51 54 57 57 55 41 56 33 24 42 25 26 35 37 44 34 45 42 28 25 24 24 23 21 22 20 21 27 22 19 19 19 28 25 27 27 21 18 20 19 19
43 43 48 51 48 51 56 57 43 48 50 30 22 26 28 32 42 37 40 40 26 30 25 22 20 20 22 20 24 19 23 22 30 23 17 16 16 17 17 20 22 21 24 24
37 41 44 41 45 42 62 57 43 40 36 23 24 22 32 28 42 46 41 37 33 21 27 25 21 23 18 17 19 22 23 18 24 31 30 26 24 24 22 22 25 25 23 23
37 38 40 39 39 49 53 49 40 44 24 20 18 26 24 35 38 51 48 31 36 29 27 32 28 22 21 19 23 28 24 28 29 28 20 25 30 28 28 28 26 27 21 23
37 35 33 47 52 47 42 39 29 44 42 14 8 16 26 25 39 47 51 33 27 25 26 22 19 18 21 18 27 25 24 26 26 27 23 25 24 21 26 26 28 26 23 21
31 33 38 40 37 35 35 31 36 35 34 23 9 7 16 23 37 49 47 42 33 30 28 26 21 22 25 27 32 25 15 20 24 23 31 31 32 32 26 27 33 29 27 27
36 37 41 39 31 25 26 18 17 27 24 27 13 7 9 23 40 44 51 40 41 31 25 19 21 22 27 25 23 29 34 34 28 27 28 30 26 25 25 27 28 31 34 32
35 32 29 25 21 23 18 16 17 22 25 17 9 3 9 23 29 47 43 35 37 29 35 27 16 25 19 18 20 21 24 24 23 27 28 26 29 32 31 28 33 33 31 30
34 34 32 26 20 18 17 16 16 18 26 19 11 6 10 9 13 17 22 31 25 30 19 24 26 19 30 26 24 26 26 24 21 25 27 32 36 34 35 39 38 37 35 37
27 25 23 24 25 21 11 10 10 10 8 17 21 15 10 8 11 13 15 16 14 9 10 24 14 23 28 29 31 33 31 27 26 25 27 26 29 33 32 33 36 38 41 41
22 22 36 23 9 6 4 8 8 7 9 6 11 10 16 15 12 8 19 4 11 7 18 17 11 16 21 30 37 40 39 39 39 36 37 35 34 29 30 30 29 30 31 33
26 29 10 7 3 3 4 4 4 4 5 5 11 17 23 18 8 5 8 7 5 8 6 5 2 3 6 13 18 25 32 35 38 41 41 40 38 36 36 32 36 36 35 31
22 6 4 3 3 4 5 8 5 10 17 11 12 19 18 13 7 6 6 10 10 4 5 4 4 1 2 3 5 8 10 12 14 18 20 19 18 19 20 19 19 18 16 15
9 4 3 0 2 3 6 9 11 7 10 8 17 20 19 13 5 4 5 4 6 6 5 4 5 5 4 2 3 3 3 2 3 3 3 1 1 2 3 4 4 4 4 5
6 3 3 2 2 1 4 7 9 10 8 16 23 17 11 4 4 4 6 5 5 5 8 8 8 8 7 6 6 8 10 7 5 5 5 5 6 5 4 4 4 3 3 5
4 5 5 4 4 2 3 9 15 16 10 14 7 6 4 6 5 6 7 9 11 10 10 10 10 10 11 12 10 9 8 7 8 8 9 7 6 4 3 2 1 2 3 4